Location: Nitra
(0.0000°N, 18.0833°E)
Time: 03:08:22
(UTC+01:00)

Landsat 7 - Pass Details

Date: 30 November 2023
Orbit: 691 x 692 km, 97.9° (Epoch: 03 March)

Event Time Altitude Azimuth Distance (km) Brightness Sun altitude
Rises 19:31:30 0° 171° (S) 3,061 7.3 -26.6°
Reaches altitude 10° 19:33:45 10° 172° (S) 2,142 6.5 -27.1°
Enters shadow 19:37:12 49° 183° (S) 886 4.4 -27.9°
